* Astronomy

Members Login
Username 
 
Password 
    Remember Me  
Post Info TOPIC: Asteroid 2002 GM2


L

Posts: 131433
Date:
RE: Asteroid 2002 GM2
Permalink  
 


The 510 - 1100 metre wide asteroid 2002 GM2 will make a close pass (60.5 LD, 0.1554 AU) travelling at 21.66 km/second, to the Earth-Moon system on the 3rd March 2015 @ 09:26 UT ±00:01. 

See more

The Lunar Distance (LD), the distance between Earth and the Moon, equals 384,401 km, (or 0.00256 AU).



__________________


L

Posts: 131433
Date:
Permalink  
 

Orbital elements:
2002 GM2                                            PHA, Earth MOID = 0.0108 AU
Epoch 2011 Aug. 27.0 TT = JDT 2455800.5                 MPC
M 345.32264              (2000.0)            P               Q
n   0.30245756     Peri.   83.84880     +0.44248030     -0.89655142
a   2.1979936      Node   339.85142     +0.79788685     +0.40385288
e   0.8084401      Incl.    3.35659     +0.40937484     +0.18192970
P   3.26           H   18.5           G   0.15           U   4

MPEC 2011 - N30



__________________
Page 1 of 1  sorted by
 
Quick Reply

Please log in to post quick replies.



Create your own FREE Forum
Report Abuse
Powered by ActiveBoard